RYR98XC EDDH-LIPZ

Flight info

Callsign RYR98XC
Flight time N/A
Altitude 35000
Route IDEKO8C/05 IDEKO N850 ROBEG/N0455F370 N850 XAROL/N0455F360 DCT BOMBI DCT GIGET DCT ABUKA/N0455F370 DCT TEDGO DCT BATUB/N0435F290 M738 ADOSA L612 ALBET
Aircraft B738/M-SDE2E3FGHIRWXY/LB1

Departure

Time N/A
Airport Hamburg Helmut Schmidt Airport (EDDH)

Arrival

Time 2026-05-06 15:22
Airport Venice Marco Polo Airport (LIPZ)
Time Latitude Longitude Altitude Speed Heading
2026-05-06 14:58 46.11378 11.08299 24878 ft 330 kts 165°
2026-05-06 14:58 46.09279 11.09616 24521 ft 330 kts 165°
2026-05-06 14:59 46.07871 11.10495 24283 ft 336 kts 164°
2026-05-06 14:59 46.05682 11.11857 23876 ft 348 kts 164°
2026-05-06 14:59 46.03467 11.13329 23459 ft 352 kts 159°
2026-05-06 14:59 46.01404 11.15292 22980 ft 362 kts 144°
2026-05-06 15:00 45.99837 11.18211 22563 ft 377 kts 124°
2026-05-06 15:00 45.99040 11.21839 22204 ft 388 kts 103°
2026-05-06 15:00 45.99145 11.25726 21957 ft 393 kts 82°
2026-05-06 15:00 46.00146 11.29400 21699 ft 397 kts 60°
2026-05-06 15:01 46.01911 11.32392 21456 ft 402 kts 39°
2026-05-06 15:01 46.04319 11.34472 21223 ft 406 kts 18°
2026-05-06 15:01 46.07055 11.35334 20996 ft 400 kts 357°
2026-05-06 15:01 46.09763 11.34860 20943 ft 388 kts 336°
2026-05-06 15:02 46.12119 11.33181 20926 ft 371 kts 315°
2026-05-06 15:02 46.13838 11.30565 20943 ft 353 kts 294°
2026-05-06 15:02 46.14744 11.27382 20944 ft 337 kts 273°
2026-05-06 15:02 46.14746 11.24083 20964 ft 324 kts 252°
2026-05-06 15:03 46.13874 11.21137 20947 ft 317 kts 231°
2026-05-06 15:03 46.12279 11.18991 20945 ft 316 kts 211°
2026-05-06 15:03 46.10167 11.17949 20947 ft 321 kts 189°
2026-05-06 15:03 46.07916 11.18196 20945 ft 332 kts 171°
2026-05-06 15:04 46.05694 11.19218 20926 ft 337 kts 166°
2026-05-06 15:04 46.03443 11.19936 20911 ft 327 kts 183°
2026-05-06 15:04 46.01175 11.20242 20906 ft 332 kts 171°
2026-05-06 15:04 45.99001 11.21293 20913 ft 336 kts 164°
2026-05-06 15:05 45.96834 11.22593 20916 ft 336 kts 163°
2026-05-06 15:05 45.94682 11.23904 20903 ft 335 kts 163°
2026-05-06 15:05 45.92515 11.25177 20914 ft 335 kts 165°
2026-05-06 15:05 45.90340 11.26402 20703 ft 336 kts 165°
2026-05-06 15:06 45.88162 11.27590 20459 ft 332 kts 165°
2026-05-06 15:06 45.86007 11.28739 20103 ft 329 kts 166°
2026-05-06 15:06 45.83890 11.29851 19757 ft 327 kts 166°
2026-05-06 15:06 45.81752 11.30963 19375 ft 327 kts 166°
2026-05-06 15:07 45.79620 11.32065 18929 ft 321 kts 166°
2026-05-06 15:07 45.77552 11.33133 18651 ft 313 kts 166°
2026-05-06 15:07 45.75503 11.34186 18277 ft 313 kts 166°
2026-05-06 15:07 45.73447 11.35238 17888 ft 312 kts 166°
2026-05-06 15:08 45.71404 11.36283 17489 ft 311 kts 165°
2026-05-06 15:08 45.69369 11.37324 17120 ft 310 kts 165°
2026-05-06 15:08 45.67347 11.38359 16760 ft 308 kts 165°
2026-05-06 15:08 45.65326 11.39391 16395 ft 307 kts 165°
2026-05-06 15:09 45.63348 11.40401 16050 ft 305 kts 165°
2026-05-06 15:09 45.61344 11.41423 15696 ft 304 kts 165°
2026-05-06 15:09 45.59348 11.42441 15356 ft 304 kts 165°
2026-05-06 15:09 45.57356 11.43455 14991 ft 303 kts 165°
2026-05-06 15:10 45.55376 11.44463 14649 ft 302 kts 165°
2026-05-06 15:10 45.53400 11.45468 14312 ft 301 kts 165°
2026-05-06 15:10 45.51423 11.46473 13957 ft 300 kts 165°
2026-05-06 15:10 45.49481 11.47460 13608 ft 300 kts 165°
2026-05-06 15:11 45.47520 11.48456 13216 ft 299 kts 165°
2026-05-06 15:11 45.45583 11.49440 13056 ft 291 kts 165°
2026-05-06 15:11 45.43702 11.50404 12925 ft 283 kts 162°
2026-05-06 15:11 45.42048 11.51918 12720 ft 287 kts 142°
2026-05-06 15:12 45.40666 11.54002 12506 ft 290 kts 137°
2026-05-06 15:12 45.39320 11.56174 12273 ft 294 kts 137°
2026-05-06 15:12 45.37968 11.58342 12025 ft 298 kts 137°
2026-05-06 15:12 45.36611 11.60596 11811 ft 302 kts 129°
2026-05-06 15:13 45.35871 11.63425 11557 ft 311 kts 102°
2026-05-06 15:13 45.35677 11.66495 11276 ft 309 kts 98°
2026-05-06 15:13 45.35520 11.69542 10766 ft 308 kts 98°
2026-05-06 15:13 45.35365 11.72548 10235 ft 309 kts 98°
2026-05-06 15:14 45.35203 11.75599 9777 ft 307 kts 98°
2026-05-06 15:14 45.35039 11.78619 9277 ft 304 kts 98°
2026-05-06 15:14 45.34872 11.81604 8811 ft 301 kts 98°
2026-05-06 15:14 45.34703 11.84558 8337 ft 299 kts 98°
2026-05-06 15:15 45.34534 11.87490 7869 ft 296 kts 98°
2026-05-06 15:15 45.34367 11.90361 7418 ft 294 kts 98°
2026-05-06 15:15 45.34198 11.93239 7048 ft 289 kts 97°
2026-05-06 15:15 45.34034 11.96034 6834 ft 278 kts 97°
2026-05-06 15:16 45.33874 11.98734 6581 ft 269 kts 97°
2026-05-06 15:16 45.33720 12.01344 6394 ft 259 kts 97°
2026-05-06 15:16 45.33572 12.03834 6287 ft 246 kts 98°
2026-05-06 15:16 45.33430 12.06199 6140 ft 233 kts 97°
2026-05-06 15:17 45.33297 12.08412 5980 ft 219 kts 97°
2026-05-06 15:17 45.33170 12.10539 5599 ft 218 kts 96°
2026-05-06 15:17 45.33418 12.12644 5164 ft 220 kts 59°
2026-05-06 15:17 45.34412 12.14269 4812 ft 217 kts 43°
2026-05-06 15:18 45.35501 12.15752 4493 ft 216 kts 42°
2026-05-06 15:18 45.36607 12.17217 4081 ft 221 kts 42°
2026-05-06 15:18 45.37770 12.18726 3484 ft 230 kts 42°
2026-05-06 15:18 45.38948 12.20250 3145 ft 224 kts 43°
2026-05-06 15:19 45.40089 12.21722 2718 ft 221 kts 44°
2026-05-06 15:19 45.41211 12.23174 2285 ft 219 kts 44°
2026-05-06 15:19 45.42331 12.24623 1922 ft 214 kts 44°
2026-05-06 15:19 45.43403 12.26009 1628 ft 202 kts 44°
2026-05-06 15:20 45.44409 12.27308 1375 ft 189 kts 44°
2026-05-06 15:20 45.45354 12.28527 1117 ft 177 kts 45°
2026-05-06 15:20 45.46223 12.29650 903 ft 164 kts 46°
2026-05-06 15:20 45.47056 12.30728 670 ft 161 kts 46°
2026-05-06 15:21 45.47885 12.31801 436 ft 163 kts 44°
2026-05-06 15:21 45.48711 12.32865 246 ft 160 kts 45°
2026-05-06 15:21 45.49550 12.33953 46 ft 161 kts 44°
2026-05-06 15:21 45.50314 12.34937 13 ft 122 kts 41°
2026-05-06 15:22 45.50796 12.35551 16 ft 75 kts 41°
2026-05-06 15:22 45.51143 12.35994 13 ft 41 kts 42°
2026-05-06 15:22 45.51298 12.35981 12 ft 16 kts 310°
2026-05-06 15:22 45.51305 12.35968 12 ft 0 kts 308°
2026-05-06 15:23 45.51323 12.35915 13 ft 7 kts 276°
2026-05-06 15:23 45.51297 12.35843 12 ft 13 kts 234°
2026-05-06 15:24 45.51212 12.35723 13 ft 20 kts 211°
2026-05-06 15:24 45.51097 12.35590 13 ft 23 kts 220°
2026-05-06 15:24 45.50981 12.35440 17 ft 22 kts 223°
2026-05-06 15:24 45.50846 12.35264 16 ft 30 kts 222°
2026-05-06 15:25 45.50687 12.35059 12 ft 25 kts 222°
2026-05-06 15:25 45.50611 12.34882 13 ft 21 kts 259°
2026-05-06 15:25 45.50604 12.34681 14 ft 20 kts 267°
2026-05-06 15:25 45.50598 12.34483 13 ft 20 kts 267°
2026-05-06 15:26 45.50514 12.34348 14 ft 19 kts 198°
2026-05-06 15:26 45.50384 12.34350 20 ft 18 kts 179°
2026-05-06 15:26 45.50268 12.34317 20 ft 17 kts 217°
2026-05-06 15:26 45.50181 12.34204 17 ft 17 kts 223°
2026-05-06 15:27 45.50093 12.34097 15 ft 17 kts 220°
2026-05-06 15:27 45.50024 12.34002 14 ft 3 kts 244°
2026-05-06 15:27 45.50030 12.33951 17 ft 8 kts 302°
2026-05-06 15:27 45.50050 12.33915 16 ft 0 kts 311°